Location: Ústí nad Labem
(50.6611°N, 14.0531°E)
Time: 18:03:22
(UTC+02:00)

S-56A Canister/Altair - Pass Details

Date: 03 May 2025
Orbit: 633 x 2485 km, 38.9° (Epoch: 12 May)

Event Time Altitude Azimuth Distance (km) Brightness Sun altitude
Rises 21:33:30 0° 244° (WSW) 3,044 10.9 -9.5°
Reaches altitude 10° 21:35:56 10° 231° (SW) 2,246 10.1 -9.8°
Maximum altitude 21:40:13 26° 174° (S) 1,643 8.8 -10.3°
Enters shadow 21:44:41 13° 126° (SE) 2,625 9.6 -10.8°
